Overview Statistics Trail Chart Weather Telemetry Raw packets
 

This is the latest recevied weather packets stored in our database for station/object OE6ATD-13. If no packets are shown the sender has not sent any weather packets the latest 10 day(s).

<< 16 17 18 19 20 21 22 >>
Time Temp. Humidity Pressure Rain* Wind** Luminosity Snow
1788448220 31.11° C 32% 1018.4 hPa 0 mm - 270 W/m² -
1788447616 31.67° C 32% 1018.5 hPa 0 mm - 329 W/m² -
1788447026 31.11° C 34% 1018.5 hPa 0 mm - 336 W/m² -
1788446422 30.56° C 33% 1018.6 hPa 0 mm - 278 W/m² -
1788445818 31.67° C 32% 1018.6 hPa 0 mm - 398 W/m² -
1788445229 31.11° C 32% 1018.6 hPa 0 mm - 429 W/m² -
1788444640 30.56° C 33% 1018.6 hPa 0 mm - 452 W/m² -
1788444017 30° C 33% 1018.9 hPa 0 mm - 333 W/m² -
1788443428 30° C 33% 1018.9 hPa 0 mm - 237 W/m² -
1788442824 30.56° C 32% 1018.9 hPa 0 mm - 254 W/m² -
1788442220 31.11° C 32% 1018.9 hPa 0 mm - 386 W/m² -
1788441616 31.67° C 31% 1019 hPa 0 mm - 661 W/m² -
1788441026 31.11° C 34% 1018.9 hPa 0 mm - 655 W/m² -
1788440422 29.44° C 35% 1019 hPa 0 mm - 647 W/m² -
1788439818 30° C 33% 1019.1 hPa 0 mm - 378 W/m² -
1788439229 31.67° C 32% 1019.2 hPa 0 mm - 466 W/m² -
1788438625 30.56° C 32% 1019.1 hPa 0 mm - 812 W/m² -
1788438021 31.11° C 32% 1019.3 hPa 0 mm - 763 W/m² -
1788437416 31.11° C 31% 1019.3 hPa 0 mm - 831 W/m² -
1788436827 30.56° C 31% 1019.5 hPa 0 mm - 814 W/m² -
1788436223 30° C 32% 1019.6 hPa 0 mm - 831 W/m² -
1788435616 30° C 31% 1019.6 hPa 0 mm - 829 W/m² -
1788435027 30° C 31% 1019.5 hPa 0 mm - 841 W/m² -
1788434423 30° C 34% 1019.9 hPa 0 mm - 862 W/m² -
1788433819 29.44° C 32% 1020 hPa 0 mm - 855 W/m² -

* Rain latest hour (hover to see other rain measurements)
** Current wind speed in m/s (hover to see current wind gust speed)